DLH4XR EDDF-EGPF

Flight info

Callsign DLH4XR
Flight time N/A
Altitude 34000
Route OBOKA2E/07C OBOKA Z28 DIBIR DCT BUDIP DCT GODOS DCT NATEB/N0397F240 Y96 AGPED
Aircraft A321/M-SDE3FGHIRWY/LB1

Departure

Time 2026-05-01 14:19
Airport Frankfurt Main Airport (EDDF)

Arrival

Time N/A
Airport Glasgow Airport (EGPF)
Time Latitude Longitude Altitude Speed Heading
2026-05-01 13:53 50.04813 8.57185 362 ft 0 kts 115°
2026-05-01 14:06 50.04813 8.57184 356 ft 2 kts 115°
2026-05-01 14:06 50.04824 8.57148 362 ft 4 kts 115°
2026-05-01 14:06 50.04833 8.57119 360 ft 3 kts 118°
2026-05-01 14:07 50.04847 8.57085 364 ft 4 kts 144°
2026-05-01 14:07 50.04850 8.57078 359 ft 4 kts 169°
2026-05-01 14:07 50.04828 8.57063 360 ft 4 kts 211°
2026-05-01 14:08 50.04794 8.57035 358 ft 0 kts 205°
2026-05-01 14:12 50.04784 8.57027 356 ft 5 kts 205°
2026-05-01 14:12 50.04749 8.57002 357 ft 6 kts 205°
2026-05-01 14:12 50.04708 8.56973 358 ft 7 kts 205°
2026-05-01 14:12 50.04663 8.56940 360 ft 7 kts 205°
2026-05-01 14:13 50.04611 8.56911 356 ft 9 kts 196°
2026-05-01 14:13 50.04566 8.56894 362 ft 9 kts 193°
2026-05-01 14:13 50.04477 8.56863 362 ft 11 kts 191°
2026-05-01 14:13 50.04390 8.56839 360 ft 14 kts 190°
2026-05-01 14:14 50.04288 8.56809 359 ft 16 kts 192°
2026-05-01 14:14 50.04222 8.56674 360 ft 18 kts 250°
2026-05-01 14:14 50.04176 8.56486 360 ft 20 kts 249°
2026-05-01 14:14 50.04126 8.56279 352 ft 21 kts 250°
2026-05-01 14:15 50.04075 8.56063 357 ft 22 kts 249°
2026-05-01 14:15 50.04021 8.55838 357 ft 23 kts 250°
2026-05-01 14:15 50.03964 8.55603 358 ft 24 kts 249°
2026-05-01 14:15 50.03908 8.55367 358 ft 23 kts 249°
2026-05-01 14:16 50.03851 8.55126 356 ft 24 kts 250°
2026-05-01 14:16 50.03792 8.54882 355 ft 25 kts 249°
2026-05-01 14:16 50.03733 8.54635 351 ft 21 kts 250°
2026-05-01 14:16 50.03681 8.54413 350 ft 23 kts 250°
2026-05-01 14:17 50.03618 8.54307 341 ft 13 kts 169°
2026-05-01 14:17 50.03574 8.54329 351 ft 0 kts 160°
2026-05-01 14:17 50.03569 8.54332 339 ft 3 kts 160°
2026-05-01 14:17 50.03538 8.54349 345 ft 4 kts 160°
2026-05-01 14:18 50.03527 8.54355 348 ft 0 kts 160°
2026-05-01 14:18 50.03518 8.54360 353 ft 5 kts 160°
2026-05-01 14:18 50.03488 8.54408 345 ft 6 kts 90°
2026-05-01 14:18 50.03498 8.54454 349 ft 7 kts 69°
2026-05-01 14:19 50.03581 8.54807 353 ft 65 kts 70°
2026-05-01 14:19 50.03814 8.55792 357 ft 125 kts 69°
2026-05-01 14:19 50.04183 8.57322 389 ft 169 kts 72°
2026-05-01 14:19 50.04601 8.59032 1018 ft 168 kts 71°
2026-05-01 14:20 50.05008 8.60751 1719 ft 172 kts 73°
2026-05-01 14:20 50.06464 8.63997 2527 ft 216 kts 22°
2026-05-01 14:20 50.07992 8.64275 3086 ft 226 kts
2026-05-01 14:21 50.09576 8.64081 3721 ft 229 kts 356°
2026-05-01 14:21 50.11183 8.63788 4143 ft 240 kts 355°
2026-05-01 14:21 50.12920 8.63498 4354 ft 259 kts 356°
2026-05-01 14:22 50.16695 8.63034 5163 ft 282 kts 357°
2026-05-01 14:22 50.18680 8.62856 5769 ft 288 kts 358°
2026-05-01 14:22 50.20695 8.62700 6443 ft 291 kts 358°
2026-05-01 14:22 50.22690 8.62120 7065 ft 295 kts 337°
2026-05-01 14:23 50.24401 8.60389 7679 ft 295 kts 312°
2026-05-01 14:23 50.25608 8.57806 8304 ft 295 kts 300°
2026-05-01 14:23 50.26702 8.55083 8962 ft 298 kts 300°
2026-05-01 14:23 50.27808 8.52324 9579 ft 300 kts 300°
2026-05-01 14:24 50.28926 8.49538 10204 ft 303 kts 301°
2026-05-01 14:24 50.30057 8.46722 10586 ft 314 kts 301°
2026-05-01 14:24 50.31250 8.43740 10718 ft 333 kts 301°
2026-05-01 14:24 50.32539 8.40521 10848 ft 352 kts 301°
2026-05-01 14:25 50.33857 8.37235 11183 ft 361 kts 301°
2026-05-01 14:25 50.35185 8.33922 11655 ft 366 kts 301°
2026-05-01 14:25 50.36558 8.30493 12184 ft 370 kts 301°
2026-05-01 14:25 50.37929 8.27063 12736 ft 372 kts 301°
2026-05-01 14:26 50.39305 8.23620 13282 ft 374 kts 301°
2026-05-01 14:26 50.42080 8.16653 14329 ft 380 kts 302°
2026-05-01 14:26 50.43491 8.13105 14751 ft 385 kts 301°
2026-05-01 14:27 50.44909 8.09526 15203 ft 388 kts 301°
2026-05-01 14:27 50.46338 8.05912 15701 ft 390 kts 301°
2026-05-01 14:27 50.47768 8.02295 16184 ft 392 kts 301°
2026-05-01 14:28 50.50662 7.94971 17186 ft 395 kts 301°
2026-05-01 14:28 50.52110 7.91289 17661 ft 397 kts 301°
2026-05-01 14:28 50.53563 7.87588 18153 ft 399 kts 301°
2026-05-01 14:28 50.55025 7.83862 18632 ft 401 kts 301°
2026-05-01 14:29 50.56499 7.80110 18899 ft 407 kts 301°
2026-05-01 14:29 50.57991 7.76304 19264 ft 410 kts 301°
2026-05-01 14:30 50.62486 7.64801 20430 ft 415 kts 301°
2026-05-01 14:30 50.63990 7.60942 20817 ft 417 kts 301°
2026-05-01 14:30 50.65514 7.57025 21212 ft 418 kts 301°
2026-05-01 14:31 50.68064 7.50447 21855 ft 421 kts 301°
2026-05-01 14:31 50.69592 7.46497 22210 ft 423 kts 301°
2026-05-01 14:31 50.71127 7.42526 22597 ft 423 kts 301°
2026-05-01 14:31 50.72655 7.38565 23006 ft 424 kts 302°
2026-05-01 14:32 50.74194 7.34569 23365 ft 426 kts 302°
2026-05-01 14:32 50.75785 7.30623 23754 ft 427 kts 304°
2026-05-01 14:32 50.77474 7.26746 23975 ft 431 kts 306°
2026-05-01 14:32 50.79236 7.22885 24241 ft 433 kts 307°
2026-05-01 14:33 50.81015 7.19042 24544 ft 435 kts 307°
2026-05-01 14:33 50.82799 7.15172 24862 ft 436 kts 307°
2026-05-01 14:33 50.84568 7.11282 25189 ft 436 kts 306°
2026-05-01 14:33 50.86328 7.07363 25552 ft 436 kts 306°
2026-05-01 14:34 50.88069 7.03439 25844 ft 437 kts 306°
2026-05-01 14:34 50.89813 6.99477 26144 ft 439 kts 306°
2026-05-01 14:34 50.91557 6.95501 26348 ft 442 kts 306°
2026-05-01 14:34 50.93319 6.91492 26616 ft 444 kts 306°
2026-05-01 14:35 50.95090 6.87462 26875 ft 445 kts 306°
2026-05-01 14:35 50.96858 6.83451 27185 ft 446 kts 306°
2026-05-01 14:35 50.98632 6.79429 27518 ft 446 kts 305°
2026-05-01 14:35 51.00452 6.75398 27792 ft 447 kts 310°
2026-05-01 14:36 51.02667 6.71943 28036 ft 448 kts 320°
2026-05-01 14:36 51.05024 6.68680 28311 ft 449 kts 320°
2026-05-01 14:36 51.07411 6.65384 28601 ft 450 kts 320°
2026-05-01 14:36 51.09749 6.62156 28820 ft 453 kts 319°
2026-05-01 14:37 51.12165 6.58814 29043 ft 455 kts 319°
2026-05-01 14:37 51.14551 6.55503 29295 ft 456 kts 319°
2026-05-01 14:37 51.16940 6.52180 29574 ft 456 kts 319°
2026-05-01 14:37 51.19331 6.48850 29805 ft 457 kts 319°
2026-05-01 14:38 51.21729 6.45501 30042 ft 458 kts 319°
2026-05-01 14:38 51.24126 6.42146 30257 ft 459 kts 319°
2026-05-01 14:38 51.26505 6.38810 30454 ft 459 kts 319°
2026-05-01 14:38 51.28901 6.35448 30695 ft 459 kts 319°
2026-05-01 14:39 51.31298 6.32089 30941 ft 457 kts 319°
2026-05-01 14:39 51.33686 6.28739 31181 ft 456 kts 319°
2026-05-01 14:39 51.36068 6.25386 31432 ft 455 kts 318°
2026-05-01 14:39 51.38437 6.22039 31678 ft 454 kts 318°
2026-05-01 14:40 51.40810 6.18683 31856 ft 455 kts 318°
2026-05-01 14:40 51.43177 6.15333 32080 ft 455 kts 317°
2026-05-01 14:40 51.45485 6.12065 32290 ft 454 kts 318°
2026-05-01 14:40 51.47854 6.08714 32523 ft 453 kts 318°
2026-05-01 14:41 51.50212 6.05376 32753 ft 453 kts 317°
2026-05-01 14:41 51.52572 6.02027 32968 ft 452 kts 318°
2026-05-01 14:41 51.54921 5.98686 33191 ft 451 kts 317°
2026-05-01 14:41 51.57270 5.95337 33407 ft 451 kts 317°
2026-05-01 14:42 51.59610 5.91997 33616 ft 450 kts 317°
2026-05-01 14:42 51.61942 5.88665 33804 ft 449 kts 317°
2026-05-01 14:42 51.64285 5.85313 34015 ft 449 kts 317°
2026-05-01 14:42 51.66611 5.81976 34205 ft 449 kts 318°
2026-05-01 14:43 51.68938 5.78631 34251 ft 448 kts 317°
2026-05-01 14:43 51.73592 5.71919 34248 ft 449 kts 317°
2026-05-01 14:44 51.78248 5.65199 34252 ft 449 kts 316°
2026-05-01 14:44 51.85261 5.55044 34239 ft 449 kts 316°
2026-05-01 14:45 51.92234 5.44892 34246 ft 450 kts 317°
2026-05-01 14:46 51.96888 5.38091 34257 ft 450 kts 317°
2026-05-01 14:46 52.03863 5.27895 34257 ft 449 kts 316°
2026-05-01 14:47 52.08498 5.21086 34257 ft 449 kts 317°
2026-05-01 14:48 52.15445 5.10823 34259 ft 450 kts 315°
2026-05-01 14:48 52.22377 5.00525 34263 ft 449 kts 315°
2026-05-01 14:49 52.31612 4.86790 34270 ft 449 kts 316°
2026-05-01 14:50 52.40820 4.72958 34269 ft 449 kts 316°
2026-05-01 14:51 52.47719 4.62569 34258 ft 449 kts 316°
2026-05-01 14:52 52.54637 4.52119 34256 ft 448 kts 316°
2026-05-01 14:53 52.61497 4.41662 34252 ft 448 kts 315°
2026-05-01 14:53 52.66034 4.34737 34253 ft 448 kts 316°
2026-05-01 14:54 52.70598 4.27754 34257 ft 448 kts 315°
2026-05-01 14:54 52.75160 4.20751 34259 ft 448 kts 315°
2026-05-01 14:55 52.79713 4.13728 34255 ft 448 kts 315°
2026-05-01 14:55 52.84266 4.06701 34255 ft 448 kts 315°
2026-05-01 14:56 52.88811 3.99658 34259 ft 448 kts 315°
2026-05-01 14:56 52.93362 3.92584 34252 ft 449 kts 315°
2026-05-01 14:57 52.97913 3.85503 34252 ft 449 kts 315°
2026-05-01 14:57 53.04740 3.74825 34263 ft 449 kts 315°
2026-05-01 14:58 53.09286 3.67689 34260 ft 449 kts 315°
2026-05-01 14:58 53.13825 3.60537 34267 ft 449 kts 314°
2026-05-01 14:59 53.18391 3.53326 34274 ft 450 kts 314°
2026-05-01 14:59 53.22927 3.46117 34252 ft 451 kts 313°
2026-05-01 15:00 53.26814 3.38027 34254 ft 446 kts 300°
2026-05-01 15:00 53.28486 3.33666 34254 ft 446 kts 300°
2026-05-01 15:01 53.31841 3.24932 34246 ft 446 kts 300°
2026-05-01 15:01 53.35195 3.16190 34246 ft 447 kts 300°
2026-05-01 15:02 53.38543 3.07425 34254 ft 447 kts 300°
2026-05-01 15:02 53.41891 2.98644 34245 ft 448 kts 299°
2026-05-01 15:03 53.45232 2.89816 34242 ft 448 kts 299°
2026-05-01 15:03 53.48001 2.82472 34236 ft 448 kts 299°
2026-05-01 15:04 53.51331 2.73606 34237 ft 449 kts 299°
2026-05-01 15:04 53.54653 2.64728 34232 ft 449 kts 299°
2026-05-01 15:05 53.57998 2.55789 34250 ft 449 kts 298°
2026-05-01 15:05 53.61331 2.46882 34234 ft 450 kts 298°
2026-05-01 15:06 53.64649 2.37945 34230 ft 450 kts 298°
2026-05-01 15:06 53.67956 2.28993 34229 ft 450 kts 298°
2026-05-01 15:07 53.71254 2.20014 34214 ft 450 kts 298°
2026-05-01 15:07 53.74548 2.11028 34219 ft 450 kts 298°
2026-05-01 15:08 53.77846 2.02032 34224 ft 450 kts 297°
2026-05-01 15:08 53.81145 1.93012 34216 ft 451 kts 297°
2026-05-01 15:09 53.84432 1.83970 34209 ft 451 kts 297°
2026-05-01 15:09 53.87712 1.74889 34211 ft 452 kts 297°
2026-05-01 15:10 53.90983 1.65805 34203 ft 452 kts 297°
2026-05-01 15:10 53.95882 1.52145 34216 ft 452 kts 296°
2026-05-01 15:11 54.00774 1.38422 34197 ft 453 kts 296°
2026-05-01 15:12 54.04037 1.29248 34200 ft 453 kts 296°
2026-05-01 15:12 54.08914 1.15441 34191 ft 453 kts 296°